Weather in Ayamonte

Spain     37°13′05″N   7°23′41″W
temp.,
°C
wind,
m/s
gust,
m/s
humid.,
%
clouds,
%
prec.,
mm/h
press.,
hPa
HPBL,
m
27 january, thu
thu2701:00+10ne337369 0.1 102332
04:00+9ene357961 0.0 102383
07:00+8ene368131 0.0 102394
10:00+11ene310715 0.0 1025351
13:00+17e88505 0.0 10251199
16:00+17e564940 0.0 10231463
19:00+13ene456327 0.0 102473
22:00+10ne3475100 0.0 102554
28 january, fri
fri2801:00+10ne227543 0.0 102511
04:00+8n22755 0.0 102521
07:00+8nne228286 0.0 102519
10:00+10ne26694 0.0 1027218
13:00+17e67422 0.0 1027976
16:00+18e79380 0.0 10251445
19:00+13ne33530 0.0 102532
22:00+10ene23660 0.0 102617
29 january, sat
sat2901:00+8nne22650 0.0 102720
04:00+7nne33700 0.0 102729
07:00+7ne337231 0.0 102625
10:00+10ene3760100 0.0 1028250
13:00+16ese5641100 0.0 1028697
16:00+18e4540100 0.1 1026815
19:00+13ne115998 0.3 102610
22:00+10ne117693 0.0 102710
30 january, sun
sun3001:00+10n2275100 0.0 102713
04:00+9ne3358100 0.0 102628
07:00+9nne225098 0.0 102629
10:00+11nne234511 0.0 1027132
13:00+17e33305 0.0 1026577
16:00+19ese22300 0.0 1024877
19:00+12ssw225224 0.0 102410
22:00+12nnw225031 0.0 102512
31 january, mon
mon3101:00+11nnw33575 0.0 102520
04:00+10nnw445493 0.0 102542
07:00+9nnw46555 0.0 102578
10:00+11nnw47483 0.0 1026176
13:00+19n45312 0.0 1026576
16:00+21nnw44270 0.0 10241187
19:00+15nnw33430 0.0 102523
22:00+11nnw45520 0.0 102674